Showing default

COSMOS 1579, 15085

Orbit data source: Space-Track

COSMOS 1579, 15085 is a payload satellite owned by VMF (CIS) in LEO that was launched on Fri, 29 Jun 1984 UTC via a TSIKLON-2 launch vehicle from the Tyuratam Missile And Space Complex (TTMTR). Payload-class satellites include a variety of spacecraft equipped with specific instruments for various scientific and technological missions. These include communications satellites like Starlink; space stations such as the ISS; scientific satellites like the Hubble; Earth observation satellites from companies like Planet Labs, Umbra, and HawkEye 360; GPS; miniature CubeSats for education and research; and military/defense satellites.

Loading next visibility...
Identifier
15085, 1984-069A
Orbit
LEO
Country
Flag of CISCIS
Related business
Manufacturer
Kometa
Mission
Defense Sigint
Bus & Motor
US-A REACTOR, Unknown motor
Mass
4,300 kg wet, 1,154 kg dry
Launch date (UTC)
1984-06-29 (41 years ago)
Launch vehicle
TSIKLON-2
Launch site
Tyuratam Missile And Space Complex (TTMTR)
Object type
Payload
Rocket body
Debris
Shape & HBR
Cone + Cyl, 2.9 m
Radar Cross Section
6.586 m², Large (>1 m²)

Expand to show TLE details & history
Last TLE update: 8 hours ago

TLE from 8 hours ago
0 COSMOS 1579
1 15085U 84069A   25259.57536330 -.00000060  00000-0  24768-4 0  9999
2 15085  65.0499  73.8615 0036076 141.5379 218.8264 13.86199592 87858
Epoch: 2025-09-16T13:48Z
TLE epoch observation values (Epoch: 2025-09-16T13:48:31.389Z)
Latitude
-0.00004°
Longitude
-129.033°
Altitude
964.527 km
Speed
7.36 km/s
True Right ascension
04h 55m 26s
True Declination
0° 00' 00"
Sunlit
Object was in daylight at epoch
Visualization orbit readout
Latitude
Unknown
Longitude
Unknown
Altitude
Unknown
Speed
Unknown
Apparent Right ascension
Unknown
Apparent Declination
Unknown
Sunlit
N/A
Visualization observer readout
Local Sidereal Time
14:47:21
Azimuth
Unknown
Elevation
Unknown
Doppler factor
Unknown
Orbital elements
Apogee altitude
966.985 km
Perigee altitude
914.179 km
Semi-major axis
7,318.719 km
Eccentricity
0.00361
Inclination
65.0499°
RAAN
73.8615°
Arg. of periapsis
141.5379°
True anomaly
218.56812°
Mean anomaly
218.8264°
Eccentric anomaly
218.69717°
Mean motion
3.46649 °/min
Orbital period
103.85 mins
BSTAR
0.000024768
Loading maneuver chart data...
Computing Atmospheric mass density...

Documentation

Showing up to 5 results
|